Location: Bermeries
(50.2863°N, 3.7551°E)
Time: 03:24:36
(UTC+00:00)

Cosmos 1703 Rocket - Pass Details

Date: 23 May 2024
Orbit: 602 x 629 km, 82.5° (Epoch: 17 June)

Event Time Altitude Azimuth Distance (km) Brightness Sun altitude
Exits shadow 00:59:00 24° 157° (SSE) 1,296 4.8 -17.0°
Maximum altitude 01:01:21 49° 94° (E) 815 4.2 -16.9°
Drops below altitude 10° 01:05:39 10° 20° (NNE) 2,015 7.5 -16.7°
Sets 01:07:57 0° 15° (NNE) 2,930 8.8 -16.6°
